Weather Roundup
Issued by NWS Chicago, IL

Home | Current Version | Previous Version | Graphics & Text | Print | Product List | Glossary On
Versions: 1 2 3 4 5 6 7 8 9 10 11 12 13 14 15 16 17 18 19 20 21 22 23 24 25 26 27 28 29 30 31 32 33 34 35 36 37 38 39 40 41 42 43 44 45 46 47 48 49 50
056
NZUS59 KLOT 221409
HRRLOT

CHICAGO AREA WEATHER ROUNDUP
NATIONAL WEATHER SERVICE CHICAGO/ROMEOVILLE IL
900 AM CDT FRI SEP 22 2017

NOTE: "FAIR" INDICATES FEW OR NO CLOUDS BELOW 12,000 FEET WITH NO
SIGNIFICANT WEATHER AND/OR OBSTRUCTIONS TO VISIBILITY.

* THESE STATIONS ARE NOT UNDER NWS QUALITY CONTROL. THEY ALSO MAY NOT
  REPORT WEATHER SUCH AS PRECIPITATION OR FOG.

ILZ005-006-012>014-019>023-221500-
NORTHEAST ILLINOIS

CITY           SKY/WX    TMP DP  RH WIND       PRES   REMARKS
OHARE          MOSUNNY   80  67  64 SW5       30.07S HX  82
MIDWAY         MOSUNNY   82  68  62 S6        30.08S HX  85
AURORA         SUNNY     77  70  79 S5        30.08R
LANSING*       SUNNY     77  70  77 S3        30.10S
JOLIET*        SUNNY     79  71  76 S3        30.09S HX  82
WAUKEGAN       SUNNY     79  71  76 S8        30.06R HX  82
DUPAGE AIRPORT SUNNY     79  70  74 SW10      30.08R HX  82
WHEELING       SUNNY     81  70  69 S7        30.08R HX  84
MORRIS*        SUNNY     75  69  81 S5        30.07S
LEWIS AIRPORT* SUNNY     77  69  75 S5        30.09S
NORTHERLY ISL    N/A     81  65  58 S3          N/A  HX  83
$$

WIZ051-052-058>065-066-070>072-221500-
SOUTHEAST WISCONSIN

CITY           SKY/WX    TMP DP  RH WIND       PRES   REMARKS
MILWAUKEE      MOSUNNY   80  69  69 SW10      30.05S HX  83
KENOSHA*       SUNNY     81  69  67 SW8       30.06S HX  84
RACINE*        SUNNY     81  70  69 SW7       30.07S HX  84
WAUKESHA       SUNNY     73  66  78 S8        30.07S
WEST BEND        N/A     75  70  83 S5        30.05S
$$

INZ001>003-010>013-019-020-221500-
NORTHWEST INDIANA

CITY           SKY/WX    TMP DP  RH WIND       PRES   REMARKS
GARY*          MOSUNNY   79  68  69 S3        30.10S HX  81
MICHIGAN CITY* NOT AVBL
RENSSELAER*    NOT AVBL
VALPARAISO     SUNNY     78  70  76 CALM      30.11S HX  80
$$

LMZ740>746-221500-
SOUTHERN LAKE MICHIGAN

STATION/POSITION TIME  SKY/WX   TEMP WIND        PRES    VSBY
                                AIR  DIR/SP/G
                 (UTC)          (F)  (DEG/KT/KT) (MB)    (MI)
HARRISON CRIB    1340            77  180/ 11/ 12   N/A
BURNHAM HARBOR   1400            81                N/A
CALUMET HARBOR   1342            79  190/  4/  6 1018.2R
BURNS HARBOR     1340            77  190/  6/  7 1019.6R
MICHIGAN CITY    1340            78  180/  6/  8   N/A
$$

ABBREVIATIONS USED IN REMARKS
   TC - TEMPERATURE IN CELSIUS
  WCI - WIND CHILL INDEX
   HX - HEAT INDEX
  VSB - VISIBILITY
$$




USA.gov is the U.S. government's official web portal to all federal, state and local government web resources and services.